Regional Weather Roundup
Issued by NWS

Home | Current Version | Previous Version | Text Only | Print | Product List | Glossary Off
Versions: 1 2 3 4 5 6 7 8 9 10 11 12 13 14 15 16 17 18 19 20 21 22 23 24 25 26 27 28 29 30 31 32 33 34 35 36 37 38 39 40 41 42 43 44 45 46 47 48 49 50

170
ASUS43 KMPX 040810
RWRMN
WEATHER ROUNDUP FOR MINNESOTA
NATIONAL WEATHER SERVICE TWIN CITIES/CHANHASSEN MN
200 AM CST SUN DEC 04 2016


NOTE: "FAIR" INDICATES FEW OR NO CLOUDS BELOW 12,000 FEET WITH NO
SIGNIFICANT WEATHER AND/OR OBSTRUCTIONS TO VISIBILITY. N/A MEANS
CURRENT SKY AND/OR WEATHER CONDITIONS ARE NOT AVAILABLE.

MNZ060>063-068>070-040900-
   Twin Cities Metro

CITY           SKY/WX    TMP DP  RH WIND       PRES   REMARKS
TWIN CITIES    LGT SNOW  31  28  89 SE10      30.08F FOG     WCI  22
ST PAUL        LGT SNOW  31  30  96 SE10      30.10F FOG     WCI  22
CRYSTAL        LGT SNOW  31  27  85 SE8       30.06F FOG     WCI  23
BLAINE         LGT SNOW  32  32 100 SE9       30.07F WCI  24
LAKEVILLE      LGT SNOW  30  30 100 SE5       30.07F WCI  25
EDEN PRAIRIE   LGT SNOW  32  29  88 SE8       30.05F FOG     WCI  25
SOUTH ST PAUL  LGT SNOW  31  30  96 SE6       30.09F WCI  25
LAKE ELMO      LGT SNOW  32  30  93 SE7       30.09F WCI  26
$$
MNZ001>005-007-008-013>017-022>024-027-028-040900-
   Northwest Minnesota

CITY           SKY/WX    TMP DP  RH WIND       PRES   REMARKS
BEMIDJI        CLOUDY    28  26  93 SE9       29.93F WCI  19
HALLOCK        CLOUDY    32  30  93 SE14      29.83F WCI  22
ROSEAU         CLOUDY    30  25  80 SE8       29.90F WCI  23
WARROAD        CLOUDY    27  25  93 SE10      29.91F WCI  17
THIEF RVR FALL CLOUDY    32  29  88 S14G21    29.87F WCI  22
CROOKSTON      MIX PCPN  34  32  93 S16       29.86F WCI  23
FOSSTON        CLOUDY    30  27  86 SE10      29.89F WCI  21
DETROIT LAKES  CLOUDY    32  32 100 S13       29.90F FOG     WCI  22
MOORHEAD       CLOUDY    34  30  86 S18G26    29.88F WCI  23
PARK RAPIDS    CLOUDY    30  25  81 SE14      29.93F WCI  19
$$
MNZ006-009>011-018-025>026-040900-
   North Central Minnesota

CITY           SKY/WX    TMP DP  RH WIND       PRES   REMARKS
BAUDETTE       FLURRIES  25  22  88 SE10      29.94F WCI  15
FLAG ISLAND    LGT SNOW  27  25  93 SE8       29.93F WCI  18
INTL FALLS     LGT SNOW  25  21  85 SE10      30.00F FOG     WCI  15
WASKISH        LGT SNOW  28  27  93 SE6       29.95F WCI  22
BIG FORK       LGT SNOW  28  25  86 SE8       29.99F WCI  20
LONGVILLE      LGT SNOW  28  27  93 SE8       29.97F WCI  20
GRAND RAPIDS   LGT SNOW  27  25  93 SE9       30.02F FOG     WCI  17
CRANE LAKE     CLOUDY    25  21  86 CALM      30.06F
ORR            FLURRIES  25  19  80 SE5       30.00F WCI  19
COOK           FLURRIES  27  21  80 SE7       30.03F WCI  19
$$
MNZ012-019>021-037-040900-
   Northeast Minnesota

CITY           SKY/WX    TMP DP  RH WIND       PRES   REMARKS
DULUTH         LGT SNOW  27  22  81 SE8       30.06F WCI  19
ELY            CLOUDY    25  21  86 SE6       30.06F WCI  18
HIBBING        LGT SNOW  25  22  88 SE7       30.03F VSB 1   WCI  17
EVELETH        LGT SNOW  26  23  86 SE6       30.05F WCI  20
DULUTH HARBOR  FLURRIES  30  25  80 S5        30.12F WCI  25
TWO HARBORS    CLOUDY    32  25  74 S5        30.08F WCI  27
SILVER BAY     CLOUDY    30  23  74 SE5       30.08F WCI  25
GRAND MARAIS     N/A     35  27  72 S10       30.14F WCI  27
G MARAIS ARPRT CLOUDY    27  19  74 SE7       30.08F WCI  19
$$
MNZ029>031-032-039>041-046>048-054>057-064-040900-
   West Central Minnesota

CITY           SKY/WX    TMP DP  RH WIND       PRES   REMARKS
FERGUS FALLS   CLOUDY    34  34 100 S14       29.95F FOG     WCI  24
MORRIS         CLOUDY    34  32  93 S12       29.92F FOG     WCI  25
ALEXANDRIA     CLOUDY    33  32  96 S17       29.95F FOG     WCI  22
ELBOW LAKE     CLOUDY    32  32  99 SE15      29.92F FOG     WCI  22
WADENA         CLOUDY    30  28  93 SE10      29.94F WCI  21
GLENWOOD       LGT SNOW  32  32 100 S18       29.96F WCI  20
APPLETON       CLOUDY    36  34  93 S10G17    29.94F
BENSON         CLOUDY    34  32  93 S10       29.95F WCI  26
ORTONVILLE     CLOUDY    34  30  86 CALM      29.92F FOG
MADISON        CLOUDY    37  36  93 S12       29.94F
WILLMAR        CLOUDY    34  34 100 S12       29.98F FOG     WCI  25
$$
MNZ033>034-036-042>043-049>051-058-059-040900-
   Central Minnesota

CITY           SKY/WX    TMP DP  RH WIND       PRES   REMARKS
ST CLOUD       LGT SNOW  30  29  96 SE10      30.02F FOG     WCI  21
PAYNESVILLE    LGT SNOW  33  33 100 S8        30.00F WCI  25
AITKIN         LGT SNOW  30  25  80 SE9       30.00F WCI  22
PINE RIVER     LGT SNOW  28  27  93 SE8       30.01F WCI  20
BRAINERD       LGT SNOW  28  26  92 SE8       30.00F FOG     WCI  20
STAPLES        CLOUDY    28  27  93 SE8       29.96F WCI  20
LONG PRAIRIE   LGT SNOW  32  30  93 E10       29.97F WCI  24
LITTLE FALLS   LGT SNOW  30  28  93 SE12      30.00F WCI  21
LITCHFIELD     LGT SNOW  34  34 100 SE8       30.01F WCI  27
BUFFALO        LGT SNOW  32  30  93 SE8       30.05F WCI  25
MAPLE LAKE     LGT SNOW  33  32  98 SE8       30.04F WCI  25
$$
MNZ037-044-045-052-053-040900-
   East Central Minnesota

CITY           SKY/WX    TMP DP  RH WIND       PRES   REMARKS
PRINCETON      LGT SNOW  30  28  93 SE7       30.05F WCI  23
MORA           LGT SNOW  28  27  93 SE5       30.07F WCI  23
CAMBRIDGE      LGT SNOW  30  27  86 SE5       30.05F WCI  25
RUSH CITY      CLOUDY    28  27  93 SE6       30.08F WCI  22
MOOSE LAKE     LGT SNOW  28  27  93 CALM      30.05F
HINCKLEY       LGT SNOW  30  28  93 SE5       30.08S WCI  25
CLOQUET        LGT SNOW  27  23  86 SE6       30.06F WCI  20
MCGREGOR       CLOUDY    28  27  93 SE7       30.04F WCI  21
$$
MNZ071>073-080-081-089-090-097-098-040900-
   Southwest Minnesota

CITY           SKY/WX    TMP DP  RH WIND       PRES   REMARKS
MONTEVIDEO     CLOUDY    34  34 100 SW7       29.98F WCI  28
GRANITE FALLS  CLOUDY    36  34  92 S10       29.99F
CANBY          CLOUDY    36  33  90 CALM      29.95F
MARSHALL       CLOUDY    35  32  88 S13       29.96F WCI  26
REDWOOD FALLS  CLOUDY    34  32  92 SE12      29.99F WCI  25
OLIVIA         CLOUDY    34  32  93 S12       29.98F WCI  25
PIPESTONE      CLOUDY    34  34 100 SW13      29.94F FOG     WCI  25
WINDOM         CLOUDY    34  34 100 S10       29.98F WCI  26
WORTHINGTON    CLOUDY    33  32  96 S13       29.98F WCI  24
JACKSON        CLOUDY    32  32 100 S10       30.00F WCI  24
TRACY          CLOUDY    35  33  92 S14G23    29.96F WCI  26
SLAYTON        CLOUDY    32  32  99 S13G20    29.96F WCI  23
$$
MNZ065>067-074>077-082>085-091>093-040900-
   South Central Minnesota

CITY           SKY/WX    TMP DP  RH WIND       PRES   REMARKS
MANKATO        LGT SNOW  33  32  96 SE10      30.04F FOG     WCI  25
NEW ULM        LGT SNOW  34  34 100 S9        30.02F WCI  26
ST JAMES       FLURRIES  34  34 100 SE13      30.02F WCI  25
FAIRMONT       LGT SNOW  33  32  96 S14       30.02F FOG     WCI  23
GLENCOE        LGT SNOW  34  34 100 SE7       30.03F WCI  27
FARIBAULT      MIX PCPN  34  32  93 SE8       30.06F WCI  27
OWATONNA       LGT SNOW  34  30  86 SE15      30.06F WCI  24
WASECA         LGT SNOW  32  32 100 SE10      30.06F WCI  24
ALBERT LEA     LGT SNOW  36  36 100 S13       30.05F
$$
MNZ078>079-086>088-094>096-040900-
   Southeast Minnesota

CITY           SKY/WX    TMP DP  RH WIND       PRES   REMARKS
ROCHESTER      LGT SNOW  32  31  96 S12       30.08F FOG     WCI  23
RED WING       LGT SNOW  32  28  86 SE6       30.11F WCI  26
STANTON        LGT SNOW  33  30  88 SE7       30.07F WCI  27
DODGE CENTER   LGT SNOW  32  30  93 SE12      30.07F WCI  23
WINONA         FLURRIES  32  30  93 SE7       30.15F WCI  26
AUSTIN         LGT SNOW  32  30  93 SE8       30.06F WCI  25
PRESTON        LGT SNOW  31  30  96 S8        30.10F WCI  24
$$
ABBREVIATIONS USED IN REMARKS
   TC - TEMPERATURES IN CELSIUS
  WCI - WIND CHILL INDEX
   HX - HEAT INDEX
  VSB - VISIBILITY
$$




USA.gov is the U.S. government's official web portal to all federal, state and local government web resources and services.